Regional Weather Roundup
Issued by NWS Cleveland, OH

Home | Current Version | Previous Version | Text Only | Print | Product List | Glossary Off
Versions: 1 2 3 4 5 6 7 8 9 10 11 12 13 14 15 16 17 18 19 20 21 22 23 24 25 26 27 28 29 30 31 32 33 34 35 36 37 38 39 40 41 42 43 44 45 46 47 48 49 50

000
ASUS41 KCLE 300310
RWRCLE
OHIO REGIONAL WEATHER ROUNDUP
NATIONAL WEATHER SERVICE CLEVELAND, OH
1100 PM EDT FRI MAY 29 2015

NOTE: "FAIR" INDICATES FEW OR NO CLOUDS BELOW 12,000 FEET WITH NO
SIGNIFICANT WEATHER AND/OR OBSTRUCTIONS TO VISIBILITY.

OHZ001>008-015>018-024>027-034-035-043-044-300400-
   NORTHWEST OHIO

CITY           SKY/WX    TMP DP  RH WIND       PRES   REMARKS
DEFIANCE       PTCLDY    74  63  68 S5        30.01R
FINDLAY        PTCLDY    74  65  73 S9        30.03R
TOLEDO EXPRESS PTCLDY    73  65  75 S5        30.01R
TOLEDO EXEC    PTCLDY    75  63  66 S9        30.02R
LIMA           PTCLDY    74  63  68 S7        30.05R
$$

OHZ009>014-019>023-028>033-038-089-300400-
   NORTHEAST OHIO

CITY           SKY/WX    TMP DP  RH WIND       PRES   REMARKS
CLE-HOPKINS    PTCLDY    77  63  61 S10       30.07S
CLE-LAKEFRONT  CLEAR     79  63  57 S15G22    30.04S
CUY CO. ARPT   MOCLDY    81  66  61 S12       30.08R
LORAIN-ELYRIA  FAIR      76  65  68 S10       30.06S
ASHTABULA      PTCLDY    73  65  75 S10       30.09R
AKRON-CANTON   PTCLDY    73  65  75 S8        30.11S
WOOSTER        PTCLDY    72  64  76 S8        30.10S
MANSFIELD      PTCLDY    74  63  68 S13       30.09S
YOUNGSTOWN     MOCLDY    73  65  75 SE9       30.11S
$$

OHZ042-051>053-060>062-070>072-077>081-300400-
  SOUTHWEST OHIO

CITY           SKY/WX    TMP DP  RH WIND       PRES   REMARKS
CINC-COVINGTON MOCLDY    72  67  84 S6        30.09R
CINC-LUNKEN    MOCLDY    73  67  81 S6        30.08R
HAMILTON       PTCLDY    72  69  90 CALM      30.08R
DAYTON         MOCLDY    77  64  64 S13G23    30.08R
WRIGHT-PAT AFB MOCLDY    76  66  72 S10       30.07R
DAYTON GENERAL PTCLDY    74  67  78 S10       30.08R
WILMINGTON     PTCLDY    71  62  73 S9        30.10R
$$

OHZ036-037-039>041-045>050-054>059-063>069-073>076-082>088-300400-
  CENTRAL AND SOUTHEAST OHIO

CITY           SKY/WX    TMP DP  RH WIND       PRES   REMARKS
COLUMBUS       MOCLDY    75  65  70 S6        30.09R
OSU AIRPORT    PTCLDY    75  65  70 S10       30.09R
BOLTON FIELD   NOT AVBL
RICKENBACK AFB MOCLDY    72  65  79 S7        30.09S
NEWARK         MOCLDY    74  65  73 SE6       30.10R
MARION         CLOUDY    75  63  66 S13       30.07S
LANCASTER      PTCLDY    72  65  78 S7        30.11R
ZANESVILLE     NOT AVBL
NEW PHILLY     PTCLDY    77  66  68 VRB3      30.11S
$$



USA.gov is the U.S. government's official web portal to all federal, state and local government web resources and services.